Location: Steinbach
(49.5170°N, 96.6830°W)
Time: 13:07:27
(UTC-06:00)

Daily predictions for brighter satellites

Satellite Brightness Start Highest point End
(mag) Time Altitude Azimuth Time Altitude Azimuth Time Altitude Azimuth
ATLAS 2AS CENTAUR R/B 4.3 18:28:45 10° NW 18:35:43 30° N 18:42:37 10° ENE
Cosmos 2360 Rocket 2.3 18:30:47 10° NNW 18:36:29 89° SW 18:42:09 10° SSE
Cosmos 2219 Rocket 3.0 18:31:37 10° NNW 18:36:39 33° NE 18:41:40 10° ESE
Cosmos 2208 Rocket 4.4 18:31:28 10° NNW 18:36:46 48° ENE 18:42:00 10° SE
USA 215 3.5 18:32:26 10° ENE 18:38:58 74° NNW 18:45:28 10° WSW
Resurs 01 Rocket 2.5 18:35:36 10° ESE 18:39:20 28° ENE 18:43:05 10° N
Okean 1 3.8 18:40:25 10° NNW 18:44:29 70° W 18:48:31 10° S
Cosmos 1536 3.8 18:42:11 10° SE 18:45:27 25° E 18:48:44 10° NE
Cosmos 2219 4.2 18:42:15 10° SSE 18:46:55 26° ESE 18:51:37 10° NE
Okean 2 Rocket 4.2 18:44:16 10° SSW 18:48:34 48° WNW 18:52:53 10° N
Cosmos 1954 Rocket 4.0 18:44:04 10° S 18:49:10 60° ESE 18:54:22 10° NNE
NOSS 3-1 (C) 4.4 18:43:19 10° NW 18:50:07 44° NNE 18:57:44 10° ESE
HJ-1C 4.0 18:47:28 10° SE 18:50:33 34° ENE 18:53:39 10° N
Cosmos 2181 Rocket 4.0 18:44:49 10° N 18:51:05 72° E 18:57:25 10° SSE
Resurs 1-3 4.4 18:48:20 10° SE 18:52:11 31° ENE 18:56:04 10° N
ATLAS CENTAUR R/B 3.9 18:52:22 10° NW 18:54:36 14° NNW 18:56:47 10° N
SL-16 R/B 3.8 18:53:19 10° N 18:57:13 18° NE 19:00:38 12° ENE
Okean 1 Rocket 3.3 18:58:57 10° SSE 19:03:15 48° E 19:07:35 10° NNE
Cosmos 1602 3.7 19:00:32 10° S 19:04:23 68° E 19:08:18 10° NNE
Cosmos 1340 3.4 19:01:14 10° NNW 19:04:58 57° W 19:08:41 10° S
Cosmos 1709 Rocket 3.9 18:59:30 10° S 19:05:42 83° E 19:11:52 10° N
Cosmos 2074 Rocket 4.4 19:01:06 10° SSE 19:06:51 40° E 19:12:40 10° NNE
Cosmos 2151 Rocket 4.2 19:03:42 10° SSW 19:08:10 63° WNW 19:12:42 10° N
USA 186 3.2 19:09:28 17° ENE 19:09:28 17° ENE 19:11:21 10° NNE
Cosmos 1025 Rocket 3.2 19:05:19 10° N 19:09:36 49° ENE 19:13:51 10° SSE
Cosmos 2184 Rocket 4.3 19:06:16 10° SSE 19:12:07 42° E 19:17:57 10° NNE
SAR-Lupe-4 4.3 19:10:00 10° SE 19:13:11 32° ENE 19:16:24 10° N
Meteor 1-11 Rocket 3.8 19:07:37 10° S 19:13:24 70° E 19:19:21 10° NNE
Cosmos 1833 4.2 19:09:40 10° SSW 19:15:22 86° ESE 19:21:02 10° NNE
ALOS 2.2 19:10:55 10° SSE 19:15:35 75° ENE 19:20:17 10° N
Cosmos 1023 Rocket 4.4 19:12:45 10° SSW 19:17:51 80° ESE 19:23:02 10° NNE
Cosmos 2333 Rocket 2.5 19:13:11 10° NNW 19:18:48 50° NE 19:23:54 12° SE
Cosmos 1980 4.1 19:16:36 10° NNW 19:22:02 44° NE 19:26:08 17° ESE
Meteor 1-28 Rocket 4.5 19:19:30 10° N 19:23:09 45° WNW 19:26:48 10° SW
SL-08 ROCKET BODY 4.5 19:17:56 10° S 19:23:58 59° E 19:30:03 10° NNE
Abrixas rocket 3.8 19:22:42 10° SSW 19:25:13 20° SSE 19:25:43 19° SE
Nadezhda 3 Rocket 4.4 19:19:47 10° N 19:25:30 38° ENE 19:31:13 10° SE
FREGAT/IRIS 3.9 19:24:35 10° S 19:27:33 43° W 19:30:33 10° NNW
Cosmos 1544 Rocket 4.4 19:28:03 10° SE 19:31:40 26° E 19:35:18 10° NNE
Okean 1-7 Rocket 3.8 19:28:01 10° NNW 19:32:34 78° W 19:37:03 10° S
FENGYUN 3A 3.7 19:27:35 10° SSE 19:33:01 82° WSW 19:38:29 10° NNW
Cosmos 1763 Rocket 4.1 19:29:31 10° N 19:34:13 35° NE 19:36:23 25° E
GEOS 3 Rocket 4.2 19:32:26 18° ENE 19:35:38 35° ESE 19:40:26 10° S
Cosmos 1741 Rocket 3.9 19:30:40 10° SSW 19:35:51 71° ESE 19:41:05 10° NNE
NOSS 0 Rocket 3.9 19:30:43 10° NNW 19:36:53 69° NE 19:42:06 15° SE
Cosmos 1437 3.5 19:34:37 10° N 19:37:27 33° ENE 19:37:27 33° ENE
Cosmos 2285 Rocket 4.0 19:31:17 10° NNW 19:37:47 87° ENE 19:44:12 10° SSE
Cosmos 1633 4.0 19:37:31 10° SSW 19:41:02 41° WNW 19:44:33 10° N
Cosmos 2154 Rocket 4.4 19:35:41 10° SSE 19:41:28 39° E 19:47:16 10° NNE
Cosmos 1515 4.1 19:43:09 10° N 19:46:50 40° ENE 19:47:06 39° E
Meteor 1-5 Rocket 4.2 19:42:06 10° S 19:48:01 71° E 19:53:52 10° NNE
CZ-4B DEB 3.5 19:49:22 35° NE 19:49:22 35° NE 19:51:37 10° N
Cosmos 1140 Rocket 4.0 19:44:21 10° SW 19:49:25 60° WNW 19:54:34 10° NNE
Cosmos 614 Rocket 4.2 19:47:21 10° SSW 19:52:24 71° WNW 19:57:30 10° NNE
Cosmos 405 Rocket 2.7 19:52:05 10° N 19:56:12 84° ENE 19:58:51 21° SSE
Okean 2 3.6 19:56:26 10° NNW 20:00:37 74° W 20:04:46 10° S
Cosmos 468 Rocket 4.0 19:56:21 10° NNW 20:01:38 86° WSW 20:05:35 18° SSE
CZ-2D R/B 3.5 19:59:26 10° S 20:03:13 66° WSW 20:07:03 10° NNW
Helios 1A 2.9 20:00:23 17° SSE 20:03:29 85° WSW 20:07:41 10° NNW
Helios 1B rocket 2.4 19:59:34 10° NNE 20:03:41 55° E 20:07:45 10° S
H-2A R/B 3.6 20:00:49 10° S 20:04:25 48° W 20:08:06 10° NNW
Cosmos 2237 Rocket 2.1 20:01:34 10° NNW 20:07:19 80° ENE 20:10:07 32° SE
COSMOS 2428 4.0 20:03:20 10° NW 20:08:35 39° WSW 20:13:49 10° S
Cosmos 1455 Rocket 4.2 20:11:07 28° NE 20:11:07 28° NE 20:13:23 10° NNE
Spot 2 Rocket 4.3 20:04:34 10° S 20:09:28 50° W 20:14:27 10° NNW
USA 229 DEB 4.5 20:03:29 10° NW 20:10:22 53° WSW 20:17:20 10° SSE
USA 229 4.4 20:03:35 10° NW 20:10:28 53° WSW 20:17:27 10° SSE
Cosmos 1066 Rocket 4.2 20:04:58 10° N 20:10:36 57° ENE 20:12:17 41° SE
Gbstr 26 Del rocket 2.5 20:08:21 10° WSW 20:12:04 77° SSE 20:12:04 77° SSE
ARGOS 4.5 20:13:10 23° NE 20:13:10 23° NE 20:16:36 10° N
SPOT 5 4.3 20:15:40 24° NE 20:15:40 24° NE 20:18:47 10° N
Resurs 01 Rocket 3.1 20:11:36 10° SSW 20:15:42 37° W 20:19:49 10° NNW
Meteor 2-8 Rocket 4.4 20:13:07 10° N 20:19:08 61° ENE 20:21:04 42° SE
BREEZE-M DEB (TANK) 4.5 20:17:57 10° WSW 20:20:30 22° SSW 20:22:41 17° SSE
Cosmos 2219 Rocket 2.8 20:15:26 10° NW 20:20:53 53° WSW 20:25:25 15° S
Cosmos 1939 Rocket 3.3 20:22:19 47° NNE 20:22:19 47° NNE 20:25:22 10° N
Cosmos 1814 Rocket 4.0 20:16:23 10° NNW 20:21:34 78° WSW 20:23:48 35° S
USA 215 3.9 20:17:51 24° NE 20:21:35 48° N 20:27:47 10° WNW
NOSS 3-1 (A) 3.9 20:15:47 10° NW 20:23:12 82° NE 20:26:48 38° SE
USA 32 3.9 20:19:37 10° N 20:24:52 71° E 20:25:53 55° SE
ERS-1 Rocket 3.1 20:25:14 53° ENE 20:25:14 53° ENE 20:30:01 10° N
Envisat 2.8 20:24:19 47° SSE 20:25:49 83° ENE 20:30:56 10° NNW
Cosmos 1441 Rocket 3.5 20:22:29 10° N 20:25:50 62° N 20:25:50 62° N
Cosmos 1610 Rocket 4.5 20:21:00 10° SSW 20:27:13 81° W 20:33:25 10° N
Aureole 2 Rocket 4.3 20:24:56 10° NNW 20:26:26 22° N 20:26:26 22° N
ATLAS 2AS CENTAUR R/B 3.6 20:21:06 10° NW 20:28:51 44° NNE 20:31:17 36° ENE
Cosmos 2219 3.7 20:25:01 10° SW 20:30:41 61° WNW 20:36:24 10° NNE
Cosmos 2227 Rocket 3.1 20:28:21 10° S 20:31:29 33° S 20:31:29 33° S
USA 186 4.1 20:40:52 21° WNW 20:40:52 21° WNW 20:42:23 10° NW
NOSS 3-1 (C) 4.1 20:34:11 10° NW 20:41:35 71° SW 20:45:20 35° SSE
Cosmos 332 Rocket 3.7 20:36:43 10° NNW 20:41:40 83° WSW 20:41:45 83° SW
SL-16 R/B 2.1 20:36:44 10° NNW 20:42:26 69° ENE 20:42:32 69° ENE
Cosmos 371 Rocket 3.5 20:47:00 10° NNW 20:51:18 68° NNW 20:51:18 68° NNW
SL-8 Rocket 4.4 20:58:38 47° NE 20:58:38 47° NE 21:03:12 10° NNE
Cosmos 1295 Rocket 4.3 20:57:15 77° SE 20:57:38 81° E 21:03:59 10° N
H-2A R/B 3.7 21:02:31 24° NNE 21:02:31 24° NNE 21:05:05 10° N
Cosmos 2333 Rocket 3.7 20:57:49 10° NW 21:02:52 33° WSW 21:05:58 20° SSW
Cosmos 841 Rocket 3.9 20:59:40 10° NNW 21:04:39 58° WSW 21:04:39 58° WSW
GEOS 3 Rocket 4.1 21:13:35 57° NNW 21:13:52 58° NW 21:19:02 10° WSW
Terra 4.3 21:21:49 13° N 21:21:49 13° N 21:22:23 10° N
Cosmos 1727 Rocket 4.5 21:29:51 10° N 21:34:43 55° NNW 21:34:43 55° NNW
Cosmos 2237 Rocket 4.3 21:46:48 10° NW 21:50:41 19° W 21:52:00 18° WSW
USA 215 4.0 22:05:11 47° NNW 22:05:11 47° NNW 22:10:19 10° WNW
ATLAS 2AS CENTAUR R/B 3.5 22:12:26 10° NW 22:18:44 56° WNW 22:18:44 56° WNW
SL-16 R/B 4.4 22:21:44 10° NW 22:24:27 20° WNW 22:24:27 20° WNW
